Total_Precipitation_Accumulation
0.05 0.05 0.05 0.06 0.05 0.03 0.00 0.00 0.00 0.00 0.00 0.00 0.00 0.00 0.00 0.00 0.00 0.00 0.00 0.00 0.02 0.03 0.05 0.15 0.22 0.26 0.32 0.35 0.33 0.30 0.27 0.33 0.38 0.41 0.46 0.53 0.53 0.49 0.49 0.47 0.45 0.47 0.54 0.56 0.56 0.56 0.55 0.49 0.46
0.05 0.08 0.09 0.09 0.05 0.01 0.00 0.00 0.00 0.00 0.00 0.00 0.00 0.00 0.00 0.00 0.00 0.00 0.00 0.00 0.01 0.01 0.03 0.09 0.19 0.26 0.31 0.33 0.32 0.30 0.29 0.31 0.35 0.40 0.44 0.48 0.50 0.51 0.50 0.46 0.45 0.49 0.58 0.63 0.64 0.62 0.59 0.54 0.49
0.09 0.12 0.11 0.09 0.04 0.00 0.00 0.00 0.00 0.00 0.00 0.00 0.00 0.00 0.00 0.00 0.00 0.00 0.00 0.00 0.00 0.01 0.03 0.10 0.20 0.27 0.32 0.35 0.34 0.33 0.32 0.33 0.36 0.39 0.45 0.52 0.51 0.50 0.47 0.43 0.43 0.48 0.58 0.65 0.66 0.60 0.57 0.55 0.53
0.11 0.16 0.15 0.09 0.02 0.00 0.00 0.00 0.00 0.00 0.00 0.00 0.00 0.00 0.00 0.00 0.00 0.00 0.00 0.00 0.01 0.02 0.03 0.11 0.22 0.29 0.34 0.37 0.37 0.36 0.36 0.38 0.40 0.43 0.48 0.55 0.56 0.55 0.50 0.44 0.41 0.43 0.49 0.57 0.58 0.55 0.55 0.56 0.50
0.16 0.17 0.15 0.08 0.01 0.00 0.00 0.00 0.00 0.00 0.00 0.00 0.00 0.00 0.00 0.00 0.00 0.00 0.00 0.00 0.01 0.02 0.05 0.13 0.25 0.32 0.37 0.39 0.39 0.40 0.41 0.43 0.46 0.48 0.53 0.58 0.58 0.57 0.55 0.52 0.47 0.43 0.43 0.47 0.50 0.51 0.52 0.54 0.49
0.22 0.21 0.14 0.05 0.01 0.00 0.00 0.00 0.00 0.00 0.00 0.00 0.00 0.00 0.00 0.00 0.00 0.00 0.00 0.01 0.01 0.02 0.06 0.15 0.29 0.36 0.41 0.44 0.43 0.45 0.48 0.50 0.52 0.54 0.59 0.59 0.57 0.57 0.56 0.55 0.49 0.45 0.41 0.40 0.42 0.44 0.47 0.48 0.47
0.22 0.22 0.12 0.05 0.02 0.01 0.01 0.00 0.01 0.00 0.00 0.00 0.00 0.01 0.01 0.01 0.01 0.01 0.01 0.02 0.03 0.04 0.08 0.17 0.29 0.37 0.44 0.48 0.48 0.49 0.52 0.54 0.57 0.59 0.60 0.61 0.58 0.59 0.61 0.57 0.51 0.48 0.47 0.42 0.37 0.37 0.38 0.38 0.40
0.25 0.29 0.15 0.06 0.03 0.02 0.00 0.00 0.01 0.01 0.01 0.00 0.01 0.01 0.01 0.01 0.01 0.02 0.03 0.04 0.05 0.08 0.12 0.19 0.29 0.36 0.43 0.49 0.53 0.53 0.56 0.59 0.62 0.65 0.64 0.60 0.61 0.62 0.60 0.55 0.49 0.50 0.50 0.45 0.41 0.38 0.35 0.33 0.32
0.35 0.40 0.19 0.06 0.04 0.03 0.02 0.02 0.01 0.01 0.02 0.01 0.01 0.01 0.01 0.01 0.02 0.03 0.06 0.08 0.12 0.14 0.18 0.26 0.35 0.41 0.46 0.52 0.56 0.62 0.66 0.72 0.74 0.72 0.69 0.69 0.67 0.63 0.55 0.47 0.47 0.50 0.52 0.46 0.44 0.42 0.39 0.35 0.30
0.38 0.34 0.15 0.04 0.03 0.05 0.05 0.05 0.04 0.04 0.03 0.02 0.02 0.02 0.02 0.02 0.04 0.05 0.07 0.10 0.12 0.16 0.21 0.29 0.39 0.45 0.53 0.57 0.65 0.76 0.77 0.79 0.78 0.69 0.66 0.68 0.63 0.60 0.55 0.50 0.49 0.53 0.53 0.51 0.49 0.48 0.46 0.41 0.32
0.30 0.23 0.10 0.06 0.04 0.07 0.07 0.07 0.08 0.09 0.07 0.03 0.04 0.04 0.03 0.04 0.07 0.10 0.11 0.11 0.11 0.13 0.20 0.28 0.41 0.51 0.56 0.59 0.67 0.77 0.80 0.79 0.80 0.74 0.69 0.68 0.70 0.67 0.64 0.59 0.61 0.60 0.56 0.56 0.56 0.59 0.54 0.49 0.44
0.23 0.16 0.11 0.09 0.09 0.10 0.11 0.10 0.10 0.10 0.08 0.04 0.04 0.06 0.06 0.07 0.08 0.10 0.12 0.12 0.14 0.17 0.23 0.32 0.44 0.53 0.56 0.57 0.64 0.70 0.72 0.71 0.72 0.72 0.73 0.75 0.74 0.70 0.68 0.65 0.66 0.68 0.65 0.62 0.60 0.58 0.55 0.51 0.47
0.21 0.12 0.09 0.10 0.12 0.13 0.13 0.11 0.10 0.07 0.04 0.05 0.05 0.06 0.08 0.08 0.09 0.09 0.12 0.17 0.18 0.20 0.27 0.38 0.46 0.54 0.60 0.63 0.68 0.71 0.68 0.64 0.66 0.70 0.73 0.69 0.63 0.58 0.54 0.54 0.53 0.50 0.49 0.49 0.51 0.53 0.52 0.50 0.46
0.17 0.12 0.09 0.11 0.12 0.14 0.15 0.11 0.09 0.05 0.03 0.05 0.07 0.07 0.07 0.08 0.09 0.11 0.13 0.18 0.23 0.23 0.30 0.42 0.51 0.57 0.65 0.65 0.67 0.70 0.68 0.65 0.68 0.67 0.65 0.62 0.58 0.53 0.47 0.45 0.45 0.42 0.38 0.36 0.37 0.38 0.39 0.40 0.39
0.20 0.21 0.15 0.09 0.10 0.12 0.19 0.18 0.07 0.04 0.04 0.07 0.09 0.08 0.07 0.08 0.10 0.11 0.12 0.14 0.20 0.26 0.34 0.44 0.55 0.67 0.72 0.70 0.71 0.74 0.73 0.70 0.69 0.68 0.64 0.63 0.58 0.55 0.52 0.47 0.44 0.42 0.42 0.42 0.40 0.40 0.39 0.36 0.33
0.30 0.35 0.26 0.10 0.08 0.12 0.27 0.23 0.06 0.04 0.08 0.10 0.10 0.09 0.09 0.08 0.10 0.13 0.15 0.16 0.20 0.29 0.39 0.48 0.60 0.75 0.81 0.79 0.79 0.78 0.77 0.79 0.75 0.71 0.69 0.64 0.60 0.56 0.54 0.52 0.48 0.47 0.50 0.51 0.49 0.44 0.43 0.39 0.35
0.41 0.37 0.22 0.09 0.08 0.15 0.27 0.20 0.05 0.05 0.09 0.10 0.11 0.11 0.10 0.10 0.11 0.14 0.17 0.19 0.21 0.29 0.40 0.51 0.60 0.75 0.87 0.92 0.88 0.86 0.81 0.83 0.83 0.78 0.72 0.69 0.63 0.57 0.54 0.53 0.54 0.56 0.60 0.59 0.56 0.51 0.46 0.44 0.40
0.38 0.25 0.16 0.09 0.08 0.14 0.19 0.14 0.06 0.06 0.10 0.10 0.11 0.13 0.12 0.14 0.15 0.17 0.20 0.23 0.25 0.29 0.39 0.51 0.63 0.80 0.92 1.08 1.11 1.09 1.01 0.90 0.88 0.84 0.74 0.67 0.67 0.63 0.61 0.58 0.58 0.62 0.65 0.64 0.60 0.54 0.49 0.46 0.45
0.25 0.25 0.18 0.07 0.06 0.15 0.15 0.10 0.08 0.08 0.10 0.11 0.12 0.14 0.15 0.16 0.19 0.21 0.26 0.32 0.35 0.37 0.43 0.51 0.65 0.82 0.98 1.11 1.19 1.16 1.10 0.95 0.89 0.87 0.82 0.72 0.69 0.71 0.71 0.65 0.66 0.64 0.66 0.63 0.60 0.59 0.57 0.52 0.50
0.28 0.32 0.23 0.13 0.08 0.17 0.17 0.10 0.07 0.08 0.11 0.13 0.13 0.16 0.18 0.16 0.18 0.19 0.24 0.35 0.41 0.43 0.46 0.50 0.62 0.73 0.91 1.04 1.09 1.15 1.10 1.02 0.92 0.89 0.87 0.79 0.70 0.73 0.80 0.74 0.69 0.67 0.66 0.68 0.68 0.66 0.65 0.64 0.58
0.32 0.29 0.23 0.19 0.16 0.20 0.24 0.17 0.06 0.05 0.07 0.10 0.11 0.13 0.16 0.18 0.18 0.19 0.23 0.32 0.41 0.45 0.49 0.54 0.58 0.66 0.77 1.02 1.24 1.36 1.41 1.29 1.12 1.01 0.92 0.82 0.74 0.68 0.76 0.80 0.75 0.70 0.68 0.66 0.65 0.64 0.63 0.66 0.60
0.35 0.19 0.20 0.24 0.37 0.38 0.33 0.35 0.08 0.04 0.05 0.07 0.09 0.10 0.11 0.15 0.15 0.16 0.20 0.28 0.36 0.43 0.54 0.62 0.61 0.68 0.77 0.94 1.25 1.41 1.46 1.34 1.08 0.93 0.90 0.87 0.81 0.73 0.70 0.78 0.80 0.78 0.76 0.71 0.66 0.64 0.63 0.69 0.71
0.27 0.19 0.23 0.28 0.46 0.55 0.38 0.43 0.14 0.06 0.07 0.06 0.06 0.08 0.09 0.12 0.14 0.14 0.17 0.22 0.31 0.44 0.56 0.67 0.72 0.77 0.86 0.93 1.12 1.35 1.46 1.39 1.25 1.11 0.99 0.93 0.91 0.86 0.78 0.75 0.79 0.80 0.80 0.79 0.74 0.69 0.70 0.72 0.75
0.23 0.29 0.37 0.45 0.76 1.00 0.37 0.35 0.20 0.12 0.13 0.10 0.08 0.09 0.10 0.13 0.15 0.13 0.14 0.17 0.27 0.42 0.51 0.65 0.77 0.81 0.93 0.98 1.09 1.22 1.39 1.49 1.46 1.35 1.22 1.07 1.01 0.96 0.93 0.81 0.78 0.80 0.81 0.82 0.79 0.73 0.72 0.74 0.74
0.42 0.76 1.16 1.25 1.35 0.87 0.18 0.25 0.23 0.12 0.09 0.12 0.14 0.12 0.12 0.12 0.14 0.14 0.13 0.14 0.22 0.39 0.50 0.61 0.76 0.79 0.88 0.95 1.04 1.16 1.30 1.45 1.56 1.47 1.31 1.20 1.16 1.07 0.97 0.92 0.83 0.81 0.80 0.80 0.81 0.81 0.75 0.72 0.76
0.46 0.72 1.02 0.94 0.60 0.23 0.11 0.19 0.18 0.11 0.06 0.06 0.08 0.11 0.12 0.12 0.12 0.14 0.14 0.14 0.18 0.28 0.40 0.52 0.70 0.74 0.78 0.86 0.95 1.09 1.26 1.44 1.53 1.56 1.40 1.28 1.20 1.09 0.97 0.93 0.87 0.82 0.83 0.86 0.85 0.83 0.80 0.76 0.73
0.44 0.48 0.46 0.67 0.49 0.29 0.20 0.17 0.13 0.07 0.04 0.04 0.05 0.06 0.09 0.12 0.11 0.12 0.15 0.15 0.19 0.24 0.33 0.44 0.66 0.73 0.70 0.77 0.86 0.98 1.13 1.34 1.44 1.48 1.47 1.34 1.27 1.20 1.12 1.04 0.99 0.92 0.90 0.89 0.89 0.87 0.81 0.81 0.81
0.38 0.47 0.51 0.85 0.85 0.52 0.29 0.18 0.19 0.13 0.08 0.06 0.06 0.07 0.09 0.10 0.10 0.10 0.13 0.14 0.17 0.22 0.30 0.41 0.57 0.73 0.73 0.74 0.81 0.90 0.98 1.15 1.30 1.42 1.52 1.40 1.34 1.30 1.31 1.25 1.19 1.09 1.05 1.02 0.99 0.95 0.86 0.85 0.85
0.45 0.57 0.74 0.79 0.63 0.53 0.40 0.29 0.25 0.19 0.14 0.11 0.09 0.08 0.08 0.09 0.10 0.10 0.12 0.12 0.15 0.18 0.25 0.38 0.50 0.66 0.78 0.81 0.79 0.88 0.96 1.09 1.19 1.23 1.31 1.40 1.41 1.36 1.42 1.46 1.40 1.32 1.22 1.18 1.17 1.11 1.04 0.99 0.90
0.48 0.56 0.66 0.82 0.64 0.37 0.37 0.32 0.22 0.15 0.13 0.12 0.10 0.08 0.07 0.08 0.09 0.10 0.11 0.12 0.13 0.16 0.21 0.31 0.46 0.62 0.72 0.81 0.86 0.88 0.96 1.09 1.15 1.12 1.11 1.18 1.30 1.33 1.38 1.56 1.58 1.51 1.41 1.32 1.33 1.34 1.25 1.19 1.10